MIDAS 4 DEB, 27478

Orbit data source: Space-Track

MIDAS 4 DEB, 27478 is space debris in LEO originally from a launch on Sat, 21 Oct 1961 UTC launched from the Air Force Western Test Range (AFWTR). Debris objects in space refer to the collection of defunct objects orbiting the Earth. Examples of debris include non-operational satellites, rocket bodies, and fragments generated from explosions, collisions, or faulty payload assembly.

Loading next visibility...
Identifier
27478, 1961-028H
Orbit
LEO
Last TLE update
3 weeks ago
Origin
Manufacturer
Unknown
Mission
Spacecraft
Bus & Motor
Unknown
Mass
Unknown
Launch date (UTC)
1961-10-21 (64 years ago)
Launch vehicle
Unknown
Launch site
Air Force Western Test Range (AFWTR)
Object type
Payload
Rocket body
Debris
Shape & HBR
Unknown
Radar Cross Section
Medium (>0.1 m² and <1 m²)

Expand to show TLE details & history

TLE from 3 weeks ago
0 MIDAS 4 DEB
1 27478U 61028H   25111.00521253  .00000005  00000-0  35095-2 0  9992
2 27478  95.8452 129.6050 0284679  23.7245 359.6747  8.66679602554213
Epoch: 2025-04-21T00:07Z
Definitive object data (Epoch: 2025-04-21T00:07:30.362Z)
Latitude
23.26572°
Longitude
-84.10994°
Altitude
3,350.451 km
Speed
6.494 km/s
True Right ascension
08h 28m 22s
True Declination
23° 10' 28"
Sunlit
Object was in daylight at TLE epoch
Visualization TLE readout
Latitude
-22.69269°
Longitude
-75.3345°
Altitude
3,389.062 km
Speed
6.469 km/s
Apparent Right ascension
06h 54m 13s
Apparent Declination
-42° 37' 25"
Sunlit
Object is in daylight
Visualization observer readout
Local Sidereal Time
13:35:45
Azimuth
239.035° WSW
Elevation
-32.429°
Doppler factor
1
Orbital elements
Apogee altitude
3,916.11 km
Perigee altitude
3,346.222 km
Semi-major axis
10,009.303 km
Eccentricity
0.0284679
Inclination
95.8452°
RAAN
129.605°
Arg. of periapsis
23.7245°
True anomaly
359.6555°
Mean anomaly
359.6747°
Eccentric anomaly
359.66517°
Mean motion
2.16739 °/min
BSTAR
0.0035095
Orbital period
166.1 mins
Loading maneuver chart data...
Loading SW <> Apogee altitude chart data...
Loading historical data...
Loading historical data...
Loading historical data...
Loading historical data...
Loading historical data...
Loading historical data...
Loading historical data...

MIDAS 4 DEB Visibility forecast

Observer location: undefined°, undefined°

Span
Click to sort rows by Start time (UTC) header in descending order
Start Az.
Max El. time (UTC)
Max El. Az.
Max El.
End time (UTC)
End Az.
9 mins2025-05-09 09:20:05.029Z50.991° ENE2025-05-09 09:24:05.029Z63.951° ENE11.109°2025-05-09 09:29:05.029Z79.944° E
37 mins2025-05-09 11:56:05.029Z14.139° NNE2025-05-09 12:13:05.029Z90.688° ESE42.183°2025-05-09 12:33:05.029Z176.16° S
32 mins2025-05-09 14:40:05.029Z0.333° NNE2025-05-09 14:55:05.029Z301.45° NW33.58°2025-05-09 15:12:05.029Z239.391° WSW
29 mins2025-05-09 22:21:05.029Z119.697° SE2025-05-09 22:35:05.029Z59.395° ENE32.999°2025-05-09 22:50:05.029Z358.53° N
32 mins2025-05-10 01:02:05.029Z188.918° SSW2025-05-10 01:17:05.029Z263.479° W41.231°2025-05-10 01:34:05.029Z346.216° N
|